GEFSCGP_850_meantemp_234.txt.gz
Temperature
7 8 9 9 10 11 11 11 12 12 11 11 12 12 13 12 11 12 12 12 11 11 11 11 11 11 11 11 11 11 11 11 11 11 10 10 10 11 11 11 11 11 11 11
7 7 9 9 9 9 9 10 11 11 10 10 11 11 12 12 12 12 12 12 11 11 11 10 10 11 11 11 11 11 11 11 11 11 11 10 10 10 10 10 10 10 10 11
7 8 8 8 8 8 9 9 10 10 10 10 10 11 12 12 11 11 11 11 11 11 11 10 10 10 10 11 11 11 11 11 11 10 10 10 10 10 10 10 10 10 10 10
7 7 7 7 7 8 8 9 9 9 9 10 10 11 12 12 12 11 11 11 10 10 10 10 10 10 10 10 10 11 11 11 10 10 10 10 10 10 10 10 10 10 10 10
6 6 6 6 7 7 8 8 8 8 9 9 9 10 12 11 11 12 11 10 10 9 9 9 9 9 10 10 10 10 10 10 10 10 10 10 10 9 10 9 9 9 9 9
5 6 6 6 7 7 7 7 7 8 8 8 10 10 12 12 11 11 11 10 9 9 9 9 9 9 9 9 9 10 10 10 10 10 10 10 9 9 9 9 9 9 9 9
5 5 5 6 6 6 6 7 7 7 7 9 10 10 11 11 10 10 10 10 9 8 8 8 8 8 9 9 9 9 9 9 10 9 9 9 9 9 9 9 9 9 9 9
4 5 5 5 5 6 6 7 8 8 9 10 9 9 10 9 9 8 8 8 8 7 7 7 8 8 8 8 8 9 9 9 9 9 9 9 9 9 9 9 9 9 9 9
4 4 5 5 5 5 5 6 7 7 8 9 9 9 9 8 8 8 8 7 7 7 7 7 7 7 8 8 8 8 8 8 8 8 8 9 8 8 9 9 9 9 9 9
2 3 4 4 4 5 6 6 6 6 7 8 9 9 9 8 8 8 8 7 7 6 6 6 6 7 7 7 7 7 7 7 8 8 8 8 8 8 8 8 8 8 8 8
2 2 3 3 3 4 4 4 5 6 7 8 9 9 9 8 8 8 8 7 6 5 5 5 6 6 7 6 6 7 7 7 7 7 7 7 8 8 8 8 8 8 8 8
1 2 2 3 3 3 4 4 5 5 5 6 8 8 7 7 7 7 6 6 5 5 5 5 5 6 6 6 6 6 6 6 6 6 6 7 7 7 7 7 7 7 7 7
1 1 2 3 3 2 3 3 4 4 4 5 6 7 6 6 6 5 5 4 4 4 4 4 5 5 6 6 6 6 6 6 6 6 6 6 6 6 6 7 7 7 7 7
1 0 1 2 3 2 2 2 3 3 4 5 6 6 6 5 5 5 4 4 4 3 3 4 4 4 5 5 5 5 5 5 5 5 5 6 6 6 6 6 6 6 6 6
0 0 0 1 2 2 2 2 2 2 3 4 5 5 5 5 5 4 4 3 3 3 3 3 3 3 4 4 4 4 4 4 5 5 5 5 5 5 5 5 5 6 6 6
-1 -1 -0 0 1 2 1 2 2 2 3 3 4 4 4 4 4 3 3 2 2 2 2 2 3 3 3 3 3 3 4 4 4 4 4 4 5 5 5 5 5 5 5 5
-1 -1 -0 1 1 1 1 1 1 2 2 2 3 3 3 3 3 2 2 2 1 1 1 2 2 2 3 3 3 3 3 3 3 3 3 4 4 4 4 4 4 4 4 4
-2 -2 -1 0 0 -0 1 1 1 1 1 1 2 2 2 2 1 1 1 1 1 0 1 1 1 2 2 2 3 3 3 3 3 3 3 3 3 3 3 4 4 4 4 4
-2 -2 -1 -1 0 1 1 -0 -0 0 1 1 1 1 1 0 1 1 0 -0 -0 -0 0 1 1 1 1 2 2 2 2 2 2 2 2 2 3 3 3 3 3 3 3 3
-2 -2 -1 -1 -1 -1 -0 -1 -1 0 1 0 -0 0 0 -0 2 2 -0 -1 -1 -1 -0 0 0 1 1 1 2 2 2 2 2 2 2 2 2 2 3 3 3 3 3 3
-2 -2 -2 -2 -1 -0 -1 -2 -0 0 -0 -1 -2 -1 -1 -1 -0 -1 -1 -1 -1 -1 -1 -0 -0 0 1 1 1 1 1 1 1 1 1 1 2 2 2 2 2 2 2 2
-3 -2 -2 -2 -2 -2 -2 -2 -1 -2 -2 -2 -2 -2 -2 -3 -3 -2 -2 -2 -2 -2 -2 -1 -1 -0 -0 0 0 0 0 1 1 1 1 1 1 1 1 1 1 2 2 2
-3 -3 -3 -2 -2 -3 -3 -3 -4 -4 -3 -3 -3 -3 -3 -3 -3 -3 -3 -3 -3 -2 -2 -2 -2 -1 -1 -1 -0 -0 -0 -0 0 0 0 0 0 1 1 1 1 1 1 1
-4 -4 -3 -3 -3 -4 -4 -4 -4 -4 -4 -4 -4 -4 -4 -4 -4 -4 -4 -4 -3 -3 -3 -3 -2 -2 -2 -1 -1 -1 -1 -1 -1 -0 -0 -0 -0 -0 -0 -0 -0 0 0 0
-5 -4 -4 -4 -4 -4 -4 -5 -5 -5 -5 -4 -4 -4 -4 -4 -4 -4 -4 -4 -4 -4 -4 -4 -3 -3 -3 -2 -2 -2 -2 -1 -1 -1 -1 -1 -1 -1 -1 -1 -1 -1 -1 -0
-6 -5 -5 -4 -5 -5 -5 -6 -5 -5 -5 -5 -5 -5 -5 -5 -5 -5 -5 -5 -5 -4 -4 -4 -4 -4 -4 -3 -3 -3 -3 -2 -2 -2 -2 -2 -2 -2 -2 -2 -2 -2 -1 -1

GEFSCGP_850_meantemp_240.txt.gz
Temperature
8 7 7 8 9 10 11 11 11 12 13 12 12 12 12 13 13 13 14 14 14 14 13 13 12 12 12 11 11 11 11 11 11 11 11 11 11 11 11 11 11 11 11 11
7 7 8 9 10 10 10 9 10 11 12 12 11 11 12 13 13 13 14 14 14 13 13 13 12 12 11 11 11 11 11 11 11 11 11 11 11 11 11 11 11 11 11 11
6 7 9 9 9 9 9 9 9 10 11 11 11 10 11 12 13 13 13 13 13 13 12 12 12 11 11 11 11 11 11 11 11 11 11 10 10 10 10 10 10 10 10 11
6 8 8 8 8 8 8 9 10 10 9 8 10 8 11 12 12 12 12 13 12 12 12 12 11 11 11 10 10 10 10 11 11 11 11 10 10 10 10 10 10 10 10 10
5 7 7 7 7 8 8 9 9 9 8 8 9 8 9 12 11 11 11 12 12 12 11 11 11 11 10 10 10 10 10 10 10 10 10 10 10 10 10 10 10 10 10 10
6 7 7 7 7 8 8 8 8 8 7 6 8 8 9 10 11 11 11 12 11 11 11 10 10 10 10 10 10 10 9 10 10 10 10 10 10 10 10 10 9 10 9 10
5 5 6 7 6 7 7 6 5 5 5 6 9 9 9 10 11 11 10 11 11 10 10 10 10 9 9 9 9 9 9 9 9 10 10 10 10 10 10 10 9 9 9 9
3 3 5 6 5 5 5 5 5 5 6 7 9 8 8 10 10 10 10 10 10 9 9 9 9 9 9 9 9 8 8 9 9 9 9 9 9 9 9 9 9 9 9 9
2 3 5 5 6 6 5 5 6 5 6 6 7 8 8 9 9 9 9 9 9 8 8 8 8 8 8 8 8 8 8 8 8 9 9 9 9 8 9 9 9 9 9 9
1 1 3 4 5 5 5 5 5 4 5 6 7 7 7 7 7 7 7 8 8 8 7 7 7 7 7 7 7 7 7 8 8 8 8 8 8 8 8 8 8 8 8 8
1 1 2 3 3 3 4 4 4 4 5 5 6 6 7 7 7 6 6 7 7 6 6 6 6 6 6 6 6 7 7 7 7 7 7 7 7 8 8 8 8 8 8 8
1 1 1 2 3 3 3 3 3 3 4 5 5 5 6 6 6 6 6 6 6 5 5 5 5 5 5 5 6 6 6 6 7 7 7 7 7 7 7 7 7 7 7 7
1 -0 -0 1 2 2 2 2 3 3 3 4 4 4 5 5 5 5 5 5 5 5 4 4 4 4 4 5 5 5 5 6 6 6 6 6 6 6 6 6 6 6 7 7
1 -0 -0 -0 0 1 1 2 2 2 2 3 3 4 4 4 4 4 4 4 4 4 3 3 3 4 4 4 4 5 5 5 5 5 6 6 6 6 6 6 6 6 6 6
-0 -1 -0 0 1 1 1 1 1 1 2 2 3 3 3 3 3 3 4 3 3 3 3 3 3 3 3 3 4 4 4 4 5 5 5 5 5 5 5 5 5 5 5 6
-1 -2 -1 -1 1 1 1 1 1 1 2 2 2 2 3 3 3 3 3 3 2 2 2 2 2 2 2 3 3 3 4 4 4 4 4 4 4 4 4 5 5 5 5 5
-2 -2 -2 -1 1 1 -0 -0 0 0 1 1 1 1 2 2 2 1 2 2 2 1 1 1 1 1 2 2 2 3 3 3 4 4 4 4 4 4 4 4 4 4 4 4
-2 -3 -2 -1 -1 -2 -1 0 0 0 -0 0 0 1 1 1 1 1 1 1 1 1 1 0 1 1 1 1 2 2 2 3 3 3 3 3 3 3 3 3 3 4 4 4
-2 -2 -2 -2 -2 -1 -1 -1 -1 -1 -1 -1 -1 -0 0 0 0 0 0 0 0 0 0 0 0 0 1 1 1 2 2 2 2 2 2 2 2 3 3 3 3 3 3 3
-2 -2 -3 -2 -2 -2 -2 -1 -0 -0 -1 -2 -1 -1 -1 -1 -1 -1 -1 -1 -1 -0 -0 -0 -0 -0 0 1 1 1 1 2 2 2 2 2 2 2 2 2 2 2 2 2
-3 -3 -3 -3 -3 -2 -3 -2 -1 -2 -3 -2 -2 -2 -2 -2 -2 -2 -2 -1 -1 -1 -1 -1 -1 -0 -0 -0 0 1 1 1 1 1 1 2 1 1 1 1 1 1 1 1
-4 -4 -4 -3 -4 -4 -3 -3 -3 -4 -3 -3 -3 -3 -3 -3 -3 -3 -2 -2 -2 -2 -1 -1 -1 -1 -1 -1 -0 0 0 0 1 1 1 1 1 1 1 1 1 1 1 1
-4 -5 -5 -4 -4 -4 -4 -4 -4 -4 -4 -4 -4 -4 -4 -4 -4 -3 -3 -3 -3 -3 -3 -2 -2 -2 -2 -1 -1 -1 -0 -0 0 0 0 0 0 0 0 0 0 0 0 0
-4 -4 -4 -4 -4 -4 -4 -5 -5 -5 -5 -5 -4 -4 -4 -4 -4 -4 -4 -4 -4 -4 -3 -3 -3 -3 -3 -2 -2 -1 -1 -1 -0 -0 -1 -1 -1 -0 -0 -0 -0 -0 -0 -0
-6 -5 -5 -5 -5 -5 -5 -5 -5 -5 -5 -5 -5 -5 -5 -5 -5 -4 -4 -4 -4 -4 -4 -4 -4 -3 -3 -3 -2 -2 -2 -1 -1 -1 -1 -1 -1 -1 -1 -1 -1 -1 -1 -1
-6 -6 -6 -6 -6 -6 -6 -6 -6 -6 -6 -6 -5 -5 -5 -5 -5 -5 -5 -5 -5 -5 -5 -4 -4 -4 -4 -3 -3 -3 -2 -2 -2 -2 -2 -2 -2 -2 -2 -2 -2 -2 -2 -2

GEFSCGP_850_meantemp_246.txt.gz
Temperature
5 4 4 4 5 6 6 6 6 7 8 8 8 8 9 9 9 9 10 10 10 11 12 12 12 12 12 12 12 12 12 11 11 11 11 11 11 11 11 11 11 11 11 11
3 3 5 6 6 6 5 5 5 6 8 8 7 8 8 8 8 9 9 9 10 11 11 11 12 12 12 12 12 11 11 11 11 11 11 11 11 11 11 11 11 11 11 11
3 4 5 5 5 5 5 5 5 6 7 7 7 7 7 7 8 9 9 9 10 10 10 11 11 11 11 11 11 11 11 11 11 11 11 11 11 10 10 11 11 11 11 11
2 4 4 4 4 5 4 6 6 6 5 5 6 5 6 7 7 7 7 8 9 9 10 10 10 11 11 11 11 11 11 11 11 11 11 11 11 11 11 11 11 10 10 10
2 3 3 4 4 5 4 5 6 5 5 5 5 5 5 6 6 7 6 7 8 8 9 9 9 10 10 10 10 10 10 11 11 10 10 10 10 11 10 10 10 10 10 10
2 3 3 3 4 5 4 4 5 4 4 4 5 5 5 5 6 6 6 7 7 8 8 9 9 9 10 10 10 10 10 10 10 10 10 10 10 10 10 10 10 10 10 10
1 2 3 3 3 4 3 3 3 3 3 4 5 4 4 5 6 6 6 6 7 7 7 8 8 9 9 9 9 9 9 9 9 9 10 10 10 10 10 10 10 9 9 9
-1 0 2 2 2 2 2 2 2 3 3 4 4 4 4 4 5 6 6 6 6 6 7 7 7 8 8 9 9 9 9 9 9 9 9 9 9 9 9 9 9 9 9 9
-1 -0 2 2 3 2 2 2 2 2 3 3 3 3 4 4 4 4 4 4 4 5 6 6 7 7 8 8 8 8 8 8 8 9 9 8 8 9 9 9 9 9 9 9
-1 -1 0 1 2 2 2 2 1 2 2 3 3 3 2 2 2 3 2 3 3 4 5 5 6 6 7 7 7 7 8 8 8 8 8 8 8 8 8 8 8 8 8 8
-2 -2 -1 0 0 0 1 1 1 1 2 2 3 2 3 2 2 2 2 2 3 3 4 4 5 5 6 6 7 7 7 7 7 7 7 8 8 8 8 8 8 8 8 8
-2 -2 -2 -1 0 1 0 -0 -0 1 1 1 2 2 2 2 2 2 2 2 2 2 3 3 4 4 5 5 5 6 6 6 6 7 7 7 7 7 7 7 7 7 7 7
-2 -3 -3 -2 -1 -1 -1 -0 -0 -0 0 0 1 1 1 1 1 1 1 1 2 2 2 3 3 3 4 4 4 5 5 6 6 6 6 6 6 6 6 7 7 6 7 7
-1 -3 -3 -2 -2 -2 -2 -1 -1 -1 -1 -1 -0 0 0 -0 -0 -0 0 1 1 1 2 2 2 2 3 3 3 4 4 5 5 5 5 6 6 6 6 6 6 6 6 6
-3 -4 -3 -2 -2 -2 -2 -2 -2 -2 -2 -1 -1 -0 -1 -1 -1 -0 -0 0 0 0 1 1 1 1 2 2 3 3 4 4 4 5 5 5 5 5 5 5 6 6 5 5
-4 -4 -4 -3 -2 -2 -2 -2 -2 -2 -2 -2 -1 -1 -1 -1 -1 -1 -1 -1 -0 -0 0 0 1 1 1 2 2 3 3 4 4 4 4 4 4 4 5 5 5 5 5 5
-5 -5 -4 -4 -3 -2 -3 -3 -3 -3 -3 -2 -2 -2 -2 -2 -2 -2 -2 -1 -1 -1 -0 -0 0 0 1 1 2 2 3 3 3 4 4 4 4 4 4 4 4 4 4 4
-5 -5 -5 -4 -4 -4 -3 -3 -3 -3 -3 -3 -3 -3 -3 -3 -2 -2 -2 -2 -1 -1 -1 -1 -0 0 0 1 1 1 2 2 3 3 3 3 3 3 3 3 3 4 4 4
-5 -5 -6 -5 -5 -4 -3 -4 -4 -4 -4 -4 -4 -4 -3 -3 -2 -2 -2 -2 -2 -1 -1 -1 -0 -0 -0 0 0 1 1 1 2 2 2 3 3 3 3 3 3 3 3 3
-5 -6 -6 -6 -5 -5 -4 -4 -4 -3 -4 -4 -4 -4 -4 -4 -3 -3 -3 -3 -2 -2 -1 -1 -1 -1 -1 -0 -0 0 0 1 1 1 1 2 2 2 2 2 2 2 2 2
-6 -7 -7 -7 -6 -5 -5 -5 -4 -4 -5 -5 -5 -5 -4 -4 -4 -4 -3 -3 -2 -2 -2 -1 -1 -1 -1 -1 -1 -0 -0 -0 0 1 1 1 1 1 1 1 1 1 2 2
-7 -7 -7 -7 -7 -6 -5 -5 -5 -6 -5 -5 -5 -5 -5 -5 -4 -4 -4 -3 -3 -2 -2 -2 -2 -2 -2 -2 -1 -1 -1 -1 -0 -0 0 0 0 1 1 1 1 1 1 1
-7 -7 -7 -7 -6 -6 -6 -6 -6 -6 -6 -6 -5 -5 -5 -5 -5 -4 -4 -4 -3 -3 -3 -3 -3 -2 -2 -2 -2 -2 -1 -1 -1 -1 -0 -0 -0 0 0 0 0 0 0 0
-8 -8 -8 -7 -7 -7 -6 -6 -6 -6 -6 -6 -6 -6 -5 -5 -5 -5 -5 -4 -4 -4 -3 -3 -3 -3 -3 -3 -3 -2 -2 -2 -2 -1 -1 -1 -1 -0 -0 -1 -1 -0 -1 -1
-9 -8 -8 -8 -8 -7 -6 -6 -6 -6 -6 -6 -6 -6 -6 -6 -6 -6 -5 -5 -5 -4 -4 -4 -4 -4 -4 -3 -3 -3 -3 -2 -2 -2 -2 -1 -1 -1 -1 -1 -1 -1 -1 -1
-9 -9 -9 -8 -8 -8 -7 -7 -7 -7 -7 -7 -6 -6 -6 -6 -6 -6 -6 -6 -5 -5 -5 -5 -4 -4 -4 -4 -4 -4 -3 -3 -3 -3 -2 -2 -2 -2 -2 -2 -2 -2 -2 -2

GEFSCGP_850_meantemp_252.txt.gz
Temperature
3 2 2 3 3 4 4 3 4 4 5 5 5 5 6 6 6 6 6 7 8 8 9 10 10 11 11 11 11 11 11 11 11 11 11 11 11 11 11 11 11 11 11 11
2 2 3 3 4 4 3 3 3 4 5 5 4 4 5 5 5 6 6 6 7 8 8 9 9 10 10 11 11 11 11 11 11 11 11 11 11 11 11 11 11 11 11 10
1 2 3 3 3 3 3 3 3 3 4 5 4 4 4 5 5 6 6 6 6 7 7 8 9 9 10 10 10 10 11 11 11 11 11 11 10 10 10 10 10 10 10 10
1 2 2 3 3 3 3 3 3 4 3 3 4 4 4 4 4 4 4 5 6 6 7 7 8 9 9 9 10 10 10 10 10 10 10 10 10 10 10 10 10 10 10 10
0 1 2 2 3 3 2 3 3 3 2 2 3 3 3 3 4 4 4 4 5 5 6 7 7 8 8 8 9 9 10 10 10 10 10 10 10 10 10 10 10 10 10 10
0 1 1 1 2 3 2 2 2 2 2 2 3 3 3 2 3 3 3 3 4 4 5 5 6 7 8 8 8 9 9 9 10 10 10 10 10 10 10 10 10 10 9 9
-0 0 1 1 1 2 2 1 1 1 2 2 3 2 2 2 2 3 3 2 3 4 4 5 5 6 7 7 8 8 8 9 9 9 9 9 9 9 9 10 9 9 9 9
-2 -1 0 1 1 0 0 1 1 1 1 2 2 2 1 1 1 2 2 2 2 3 3 4 5 6 6 7 7 7 8 8 9 9 9 9 9 9 9 9 9 9 9 9
-2 -1 0 1 1 0 0 0 1 1 1 1 1 0 1 1 1 1 1 1 2 2 3 3 4 5 6 6 7 7 7 8 8 8 8 8 8 8 8 8 9 8 8 8
-3 -2 -1 -0 1 0 -0 -0 -0 0 1 1 1 0 0 -0 0 0 0 0 1 2 2 3 3 4 5 6 6 6 7 7 7 8 8 8 8 8 8 8 8 8 8 8
-3 -3 -2 -1 -2 -1 -1 -1 -1 -1 0 1 0 0 -0 -0 -0 -0 -0 -0 0 1 2 2 3 3 4 5 5 6 6 6 7 7 7 7 7 7 7 8 8 8 7 7
-4 -4 -4 -3 -2 -1 -2 -2 -2 -1 -1 -1 -1 -0 -0 -1 -1 -1 -1 -0 -0 1 1 2 2 3 3 4 4 5 5 6 6 6 6 6 7 7 7 7 7 7 7 7
-4 -5 -4 -3 -2 -3 -3 -3 -3 -2 -2 -2 -2 -1 -1 -1 -1 -1 -1 -1 -1 0 1 1 1 2 2 3 3 4 4 5 5 5 5 6 6 6 6 6 6 7 6 6
-3 -5 -4 -4 -4 -4 -4 -3 -3 -3 -3 -3 -2 -2 -2 -2 -2 -2 -2 -2 -1 -0 -0 0 1 1 2 2 2 3 3 4 4 5 5 5 5 5 5 5 6 6 6 6
-4 -5 -5 -4 -4 -4 -4 -3 -3 -4 -3 -3 -3 -3 -3 -3 -3 -3 -3 -2 -2 -1 -1 -0 0 0 1 1 2 2 3 3 4 4 4 5 5 5 5 5 5 5 5 5
-6 -6 -5 -5 -4 -4 -3 -4 -4 -4 -4 -3 -3 -3 -3 -3 -3 -3 -3 -3 -3 -3 -2 -1 -1 -0 0 1 1 2 2 2 3 3 4 4 4 4 4 4 5 5 5 5
-7 -7 -6 -5 -5 -4 -4 -5 -4 -4 -5 -4 -4 -4 -4 -4 -4 -4 -4 -4 -4 -3 -3 -2 -1 -1 -0 0 1 1 2 2 2 3 3 3 3 4 4 4 4 4 4 4
-7 -7 -7 -6 -6 -5 -5 -5 -5 -5 -5 -5 -5 -5 -5 -4 -4 -3 -3 -4 -3 -3 -3 -2 -2 -1 -1 -0 0 1 1 1 2 2 2 3 3 3 3 3 3 3 3 3
-7 -7 -7 -7 -7 -6 -5 -5 -6 -6 -5 -5 -6 -5 -5 -5 -4 -4 -3 -3 -3 -3 -2 -2 -2 -1 -1 -1 -0 0 0 1 1 1 2 2 2 2 2 3 3 3 3 3
-7 -8 -8 -8 -6 -6 -6 -6 -6 -6 -5 -6 -6 -6 -6 -5 -5 -4 -4 -4 -3 -3 -2 -2 -2 -1 -1 -1 -1 -1 -0 0 0 1 1 1 1 2 2 2 2 2 2 2
-8 -9 -9 -8 -8 -7 -7 -6 -6 -6 -6 -6 -6 -6 -6 -6 -6 -5 -4 -4 -3 -3 -2 -2 -2 -2 -2 -1 -1 -1 -1 -1 -0 -0 0 0 1 1 1 1 1 1 1 1
-8 -8 -8 -8 -8 -7 -7 -7 -7 -7 -6 -6 -6 -6 -7 -6 -6 -5 -5 -4 -4 -3 -3 -2 -2 -2 -2 -2 -2 -2 -2 -1 -1 -1 -1 -0 -0 0 0 1 1 1 1 1
-9 -9 -9 -9 -8 -7 -7 -7 -7 -7 -7 -7 -7 -7 -7 -7 -6 -6 -5 -5 -4 -4 -3 -3 -3 -3 -3 -3 -2 -2 -2 -2 -2 -1 -1 -1 -1 -1 -0 -0 0 0 0 0
-10 -10 -10 -9 -9 -8 -7 -7 -7 -7 -7 -7 -7 -7 -7 -7 -6 -6 -6 -5 -5 -4 -4 -4 -3 -3 -3 -3 -3 -3 -3 -2 -2 -2 -2 -1 -1 -1 -1 -1 -1 -0 -0 -0
-11 -11 -10 -10 -9 -8 -7 -7 -7 -7 -7 -7 -7 -7 -7 -7 -7 -7 -6 -6 -5 -5 -5 -4 -4 -4 -4 -3 -3 -3 -3 -3 -3 -3 -2 -2 -2 -2 -2 -2 -2 -1 -1 -1
-11 -11 -10 -9 -8 -9 -8 -7 -7 -7 -7 -8 -8 -7 -7 -8 -7 -7 -7 -6 -6 -6 -5 -5 -5 -5 -4 -4 -4 -4 -4 -3 -3 -3 -3 -3 -3 -3 -2 -2 -2 -2 -2 -2

GEFSCGP_850_meantemp_258.txt.gz
Temperature
5 5 5 6 6 7 7 7 8 8 8 7 7 7 8 7 7 7 7 7 7 7 7 8 8 9 9 9 10 10 10 10 10 10 10 10 11 11 11 11 11 11 11 11
5 5 5 6 6 6 6 6 7 7 7 7 7 7 7 7 7 7 7 6 6 6 7 7 8 8 8 9 9 10 10 10 10 10 10 10 10 10 10 10 11 11 11 11
4 4 5 5 5 5 6 6 6 6 6 7 6 7 7 7 6 6 6 6 6 6 6 6 7 7 8 8 8 9 9 10 10 10 10 10 10 10 10 10 10 10 10 10
4 4 4 4 4 4 5 6 6 5 6 6 7 7 7 7 6 6 5 5 5 5 5 5 6 6 7 7 8 8 9 9 9 9 10 10 10 10 10 10 10 10 10 10
3 3 3 3 4 4 4 5 5 5 5 5 6 6 7 6 6 6 5 5 4 4 4 4 5 5 6 7 7 8 8 9 9 9 9 9 9 10 10 10 10 10 10 10
3 2 3 3 3 4 4 4 5 5 5 5 6 6 6 6 5 5 5 4 4 3 4 4 4 5 6 6 7 7 8 8 8 9 9 9 9 9 9 9 9 9 9 9
2 3 3 2 3 3 3 4 4 4 4 5 5 5 5 5 4 4 4 3 3 3 2 3 3 4 5 5 6 7 7 8 8 8 8 9 9 9 9 9 9 9 9 9
2 2 2 2 2 2 2 3 4 4 5 5 4 4 5 4 3 3 3 3 2 2 2 2 2 3 4 5 5 6 7 7 7 8 8 8 8 8 8 9 9 8 9 9
1 1 1 1 2 2 2 3 3 3 4 4 4 4 4 3 3 3 2 2 2 1 1 1 2 3 3 4 4 5 6 6 7 7 7 8 8 8 8 8 8 8 8 8
-1 -0 1 1 2 1 2 2 2 3 3 4 4 4 4 2 2 2 2 2 2 1 1 1 2 2 3 3 4 4 5 5 6 6 7 7 7 7 8 8 8 8 8 8
-1 -1 0 1 0 0 1 1 1 2 3 4 4 4 2 2 2 1 2 1 1 1 1 1 1 2 2 3 3 4 4 5 5 6 6 6 7 7 7 7 7 7 7 7
-1 -1 -0 -0 -0 -0 -0 -0 0 1 1 2 3 3 1 1 1 1 0 -0 0 0 0 1 1 1 2 2 3 3 4 4 5 5 5 6 6 6 7 7 7 7 7 7
-2 -2 -0 0 -0 -1 -1 -1 -1 -1 1 1 2 2 1 0 -0 -1 -1 -1 -1 -1 -0 0 1 1 1 2 2 2 3 3 4 4 5 5 5 6 6 6 6 6 6 6
-2 -2 -1 -0 -1 -1 -2 -2 -1 -1 -0 0 1 1 0 -0 -1 -1 -2 -2 -2 -1 -1 -1 -0 0 1 1 2 2 2 3 3 4 4 5 5 5 5 6 6 6 6 6
-2 -2 -3 -2 -2 -2 -2 -2 -2 -2 -1 -1 -0 -1 -1 -1 -2 -2 -2 -2 -2 -2 -2 -1 -1 -0 0 1 1 1 2 2 3 3 3 4 4 5 5 5 5 5 5 5
-4 -3 -3 -3 -2 -2 -2 -2 -2 -2 -2 -2 -1 -2 -2 -2 -3 -2 -3 -3 -3 -3 -2 -2 -2 -1 -1 0 1 1 1 2 2 2 3 3 4 4 4 4 4 5 5 5
-4 -4 -3 -1 -3 -2 -2 -3 -3 -3 -3 -3 -2 -2 -2 -3 -3 -3 -3 -4 -3 -3 -3 -3 -2 -2 -1 -1 -0 0 1 1 1 2 2 3 3 3 3 3 4 4 4 4
-5 -4 -4 -2 -3 -3 -2 -3 -3 -4 -4 -4 -3 -3 -3 -3 -4 -4 -4 -4 -4 -4 -3 -3 -2 -2 -1 -1 -1 -0 0 0 1 1 1 2 2 2 2 3 3 3 3 3
-5 -4 -3 -3 -3 -2 -2 -4 -4 -4 -4 -4 -4 -4 -4 -5 -4 -3 -4 -5 -4 -4 -4 -3 -2 -2 -2 -1 -1 -1 -0 -0 0 0 1 1 1 2 2 2 2 2 2 3
-5 -5 -4 -4 -3 -2 -2 -4 -5 -4 -3 -4 -5 -5 -5 -5 -3 -2 -4 -5 -5 -4 -4 -3 -3 -2 -2 -2 -1 -1 -1 -1 -1 -0 -0 0 1 1 1 1 1 2 2 2
-5 -5 -5 -4 -3 -2 -4 -6 -5 -4 -3 -5 -6 -6 -6 -5 -5 -5 -5 -5 -5 -4 -4 -3 -3 -3 -2 -2 -2 -2 -1 -1 -1 -1 -1 -0 0 0 0 0 1 1 1 1
-5 -4 -5 -5 -4 -3 -6 -6 -5 -4 -6 -6 -6 -7 -7 -7 -6 -6 -6 -6 -5 -4 -4 -4 -3 -3 -3 -2 -2 -2 -2 -2 -2 -1 -1 -1 -1 -0 -0 -0 0 0 0 1
-6 -6 -5 -5 -4 -6 -7 -6 -6 -7 -7 -7 -7 -7 -7 -7 -7 -7 -6 -6 -6 -5 -5 -4 -4 -3 -3 -3 -3 -2 -2 -2 -2 -2 -1 -1 -1 -1 -1 -1 -0 -0 -0 -0
-7 -9 -7 -7 -6 -7 -7 -7 -7 -7 -7 -7 -7 -7 -7 -7 -7 -7 -7 -6 -6 -6 -5 -5 -4 -4 -3 -3 -3 -3 -3 -3 -2 -2 -2 -2 -2 -2 -1 -1 -1 -1 -1 -1
-7 -9 -8 -8 -7 -8 -7 -7 -7 -7 -8 -8 -8 -8 -8 -8 -7 -7 -7 -7 -7 -6 -6 -5 -5 -5 -4 -4 -4 -3 -3 -3 -3 -3 -3 -2 -2 -2 -2 -2 -2 -2 -2 -2
-8 -9 -8 -6 -7 -7 -7 -7 -7 -8 -8 -8 -8 -8 -8 -8 -8 -8 -7 -7 -7 -7 -6 -6 -6 -5 -5 -4 -4 -4 -4 -4 -3 -3 -3 -3 -3 -3 -3 -3 -3 -3 -2 -2